Hourly Weather Acered

Today, 29 July, Thursday

Time Temperature Precipitation Wind Pressure Humidity
00:00 +20°C° 0 mm 2 mps 682 mmHg 67%
01:00 +20°C° 0 mm 2 mps 682 mmHg 70%
02:00 +20°C° 0 mm 1 mps 681 mmHg 73%
03:00 +20°C° 0 mm 1 mps 681 mmHg 75%
04:00 +20°C° 0 mm 1 mps 681 mmHg 75%
05:00 +20°C° 0 mm 1 mps 681 mmHg 75%
06:00 +20°C° 0 mm 1 mps 681 mmHg 74%
07:00 +22°C° 0 mm 1 mps 682 mmHg 64%
08:00 +24°C° 0 mm 1 mps 682 mmHg 54%
09:00 +27°C° 0 mm 2 mps 682 mmHg 43%
10:00 +29°C° 0 mm 3 mps 682 mmHg 37%
11:00 +32°C° 0 mm 4 mps 682 mmHg 30%
12:00 +34°C° 0 mm 4 mps 682 mmHg 23%
13:00 +35°C° 0 mm 5 mps 682 mmHg 21%
14:00 +36°C° 0 mm 6 mps 682 mmHg 19%
15:00 +38°C° 0 mm 7 mps 681 mmHg 17%
16:00 +36°C° 0 mm 7 mps 681 mmHg 17%
17:00 +36°C° 0 mm 7 mps 681 mmHg 17%
18:00 +35°C° 0 mm 7 mps 680 mmHg 17%
19:00 +33°C° 0 mm 6 mps 680 mmHg 20%
20:00 +30°C° 0 mm 5 mps 680 mmHg 23%
21:00 +28°C° 0 mm 3 mps 680 mmHg 26%
22:00 +27°C° 0 mm 3 mps 680 mmHg 30%
23:00 +25°C° 0 mm 3 mps 680 mmHg 34%

Tomorrow, 30 July, Friday

Time Temperature Precipitation Wind Pressure Humidity
00:00 +24°C° 0 mm 2 mps 680 mmHg 38%
01:00 +23°C° 0 mm 2 mps 680 mmHg 42%
02:00 +21°C° 0 mm 2 mps 680 mmHg 47%
03:00 +21°C° 0 mm 2 mps 680 mmHg 52%
04:00 +21°C° 0 mm 1 mps 680 mmHg 53%
05:00 +21°C° 0 mm 1 mps 680 mmHg 54%
06:00 +21°C° 0 mm 1 mps 680 mmHg 55%
07:00 +23°C° 0 mm 2 mps 681 mmHg 47%
08:00 +25°C° 0 mm 3 mps 681 mmHg 39%
09:00 +27°C° 0 mm 4 mps 682 mmHg 32%
10:00 +29°C° 0 mm 5 mps 682 mmHg 27%
11:00 +30°C° 0 mm 5 mps 682 mmHg 23%
12:00 +33°C° 0 mm 5 mps 682 mmHg 18%
13:00 +33°C° 0 mm 5 mps 681 mmHg 17%
14:00 +34°C° 0 mm 6 mps 681 mmHg 16%
15:00 +34°C° 0 mm 6 mps 681 mmHg 15%
16:00 +33°C° 0 mm 6 mps 681 mmHg 20%
17:00 +30°C° 0 mm 6 mps 680 mmHg 24%
18:00 +28°C° 0 mm 7 mps 680 mmHg 28%
19:00 +26°C° 0 mm 5 mps 680 mmHg 38%
20:00 +22°C° 0 mm 4 mps 680 mmHg 48%
21:00 +20°C° 0 mm 3 mps 681 mmHg 58%
22:00 +19°C° 0 mm 2 mps 680 mmHg 62%
23:00 +18°C° 0 mm 2 mps 680 mmHg 65%

Day after tomorrow, 31 July, Saturday

Time Temperature Precipitation Wind Pressure Humidity
00:00 +17°C° 0 mm 2 mps 680 mmHg 68%
01:00 +17°C° 0 mm 2 mps 679 mmHg 69%
02:00 +16°C° 0 mm 2 mps 679 mmHg 71%
03:00 +16°C° 0 mm 2 mps 679 mmHg 72%
04:00 +16°C° 0 mm 2 mps 679 mmHg 73%
05:00 +16°C° 0 mm 2 mps 679 mmHg 73%
06:00 +15°C° 0 mm 2 mps 679 mmHg 74%
07:00 +17°C° 0 mm 2 mps 679 mmHg 66%
08:00 +18°C° 0 mm 3 mps 679 mmHg 58%
09:00 +20°C° 0 mm 4 mps 680 mmHg 51%
10:00 +21°C° 0 mm 4 mps 680 mmHg 47%
11:00 +22°C° 0 mm 4 mps 680 mmHg 44%
12:00 +23°C° 0 mm 5 mps 680 mmHg 40%
13:00 +22°C° 0.4 mm 6 mps 679 mmHg 45%
14:00 +21°C° 0.4 mm 8 mps 679 mmHg 49%
15:00 +19°C° 0.4 mm 9 mps 679 mmHg 54%
16:00 +20°C° 1.6 mm 8 mps 679 mmHg 54%
17:00 +19°C° 1.6 mm 6 mps 680 mmHg 55%
18:00 +19°C° 1.6 mm 4 mps 680 mmHg 56%
19:00 +18°C° 0 mm 4 mps 681 mmHg 58%
20:00 +17°C° 0 mm 3 mps 681 mmHg 60%
21:00 +16°C° 0 mm 3 mps 681 mmHg 62%
22:00 +15°C° 0 mm 2 mps 681 mmHg 63%
23:00 +15°C° 0 mm 2 mps 681 mmHg 64%

1 August, Sunday

Time Temperature Precipitation Wind Pressure Humidity
00:00 +15°C° 0 mm 1 mps 681 mmHg 66%
01:00 +14°C° 0 mm 1 mps 681 mmHg 67%
02:00 +14°C° 0 mm 1 mps 680 mmHg 69%
03:00 +14°C° 0 mm 1 mps 680 mmHg 70%
04:00 +14°C° 0 mm 1 mps 680 mmHg 70%
05:00 +14°C° 0 mm 1 mps 680 mmHg 70%
06:00 +14°C° 0 mm 1 mps 681 mmHg 69%
07:00 +15°C° 0 mm 1 mps 681 mmHg 62%
08:00 +18°C° 0 mm 1 mps 681 mmHg 55%
09:00 +19°C° 0 mm 1 mps 681 mmHg 48%
10:00 +21°C° 0 mm 1 mps 681 mmHg 43%
11:00 +22°C° 0 mm 1 mps 681 mmHg 38%
12:00 +24°C° 0 mm 1 mps 681 mmHg 32%
13:00 +25°C° 0 mm 2 mps 681 mmHg 30%
14:00 +26°C° 0 mm 2 mps 681 mmHg 28%
15:00 +27°C° 0 mm 3 mps 681 mmHg 25%
16:00 +27°C° 0 mm 3 mps 680 mmHg 26%
17:00 +26°C° 0 mm 4 mps 680 mmHg 27%
18:00 +26°C° 0 mm 5 mps 680 mmHg 28%
19:00 +23°C° 0 mm 5 mps 680 mmHg 35%
20:00 +21°C° 0 mm 5 mps 680 mmHg 42%
21:00 +19°C° 0 mm 4 mps 681 mmHg 49%
22:00 +18°C° 0 mm 4 mps 680 mmHg 53%
23:00 +18°C° 0 mm 3 mps 680 mmHg 56%

2 August, Monday

Time Temperature Precipitation Wind Pressure Humidity
00:00 +17°C° 0 mm 2 mps 680 mmHg 60%
01:00 +16°C° 0 mm 2 mps 680 mmHg 62%
02:00 +16°C° 0 mm 2 mps 680 mmHg 65%
03:00 +15°C° 0 mm 2 mps 680 mmHg 67%
04:00 +15°C° 0 mm 1 mps 680 mmHg 67%
05:00 +15°C° 0 mm 1 mps 680 mmHg 68%
06:00 +15°C° 0 mm 1 mps 680 mmHg 68%
07:00 +18°C° 0 mm 1 mps 680 mmHg 61%
08:00 +19°C° 0 mm 2 mps 680 mmHg 53%
09:00 +21°C° 0 mm 2 mps 681 mmHg 46%
10:00 +22°C° 0 mm 3 mps 681 mmHg 41%
11:00 +25°C° 0 mm 3 mps 681 mmHg 36%
12:00 +27°C° 0 mm 4 mps 681 mmHg 31%
13:00 +27°C° 0 mm 4 mps 680 mmHg 32%
14:00 +27°C° 0 mm 5 mps 680 mmHg 32%
15:00 +27°C° 0 mm 5 mps 680 mmHg 32%
16:00 +27°C° 0 mm 5 mps 680 mmHg 34%
17:00 +27°C° 0 mm 5 mps 679 mmHg 35%
18:00 +27°C° 0 mm 5 mps 679 mmHg 37%
19:00 +23°C° 0.2 mm 4 mps 679 mmHg 49%
20:00 +21°C° 0.2 mm 4 mps 679 mmHg 61%
21:00 +19°C° 0.2 mm 3 mps 679 mmHg 73%
22:00 +19°C° 0.3 mm 3 mps 679 mmHg 78%
23:00 +18°C° 0.3 mm 2 mps 680 mmHg 82%

3 August, Tuesday

Time Temperature Precipitation Wind Pressure Humidity
00:00 +18°C° 0.3 mm 2 mps 680 mmHg 86%
01:00 +17°C° 0.3 mm 2 mps 679 mmHg 87%
02:00 +17°C° 0.3 mm 2 mps 679 mmHg 88%
03:00 +16°C° 0.3 mm 2 mps 679 mmHg 89%
04:00 +16°C° 0.5 mm 2 mps 679 mmHg 88%
05:00 +16°C° 0.5 mm 2 mps 679 mmHg 88%
06:00 +16°C° 0.5 mm 2 mps 679 mmHg 88%
07:00 +17°C° 0.1 mm 2 mps 680 mmHg 80%
08:00 +18°C° 0.1 mm 2 mps 680 mmHg 73%
09:00 +19°C° 0.1 mm 2 mps 680 mmHg 65%
10:00 +20°C° 0.1 mm 3 mps 681 mmHg 61%
11:00 +22°C° 0.1 mm 4 mps 681 mmHg 56%
12:00 +23°C° 0.1 mm 5 mps 681 mmHg 51%
13:00 +23°C° 0 mm 5 mps 681 mmHg 50%
14:00 +23°C° 0 mm 5 mps 681 mmHg 48%
15:00 +23°C° 0 mm 5 mps 681 mmHg 47%
16:00 +23°C° 0 mm 6 mps 681 mmHg 48%
17:00 +22°C° 0 mm 6 mps 681 mmHg 50%
18:00 +22°C° 0 mm 6 mps 681 mmHg 51%
19:00 +20°C° 0 mm 6 mps 681 mmHg 54%
20:00 +19°C° 0 mm 5 mps 681 mmHg 58%
21:00 +18°C° 0 mm 4 mps 682 mmHg 61%
22:00 +18°C° 0 mm 3 mps 682 mmHg 63%
23:00 +17°C° 0 mm 2 mps 682 mmHg 65%
Show more

We Need Your Consent

Meteoprog and our Service Providers may store and access personal data such as cookies, device identifiers or other similar technologies on your device and process such data to personalise content and ads, as well as provide social media features and to analyse the traffic.

  • Store and/or access information on your device

    Cookies, device identifiers or other information can be stored or accessed on your device for the purposes indicated above.

  • Personalised ads and content, ad and content measurement, audience insights, and products development

    Ads and content can be personalised based on a profile. More data can be added to better personalise ads and content. Ad and content performance can be measured. Insights about the audience who saw the ads and content can be derived. Such data can be used to develop or improve user’s experience, systems and software.

By clicking ‘I Agree’ you will allow the use of indicated cookies, device identifiers, web beacons or other similar technologies. Your settings can be changed in the browser on your device.

For certain purposes, legitimate interests may be relied on, rather than consent. You can read more about this in our Privacy and Cookie Policy.